Home   Weather   Lyon   Past weeks

Flag for France Past Weather in Lyon, Rhône-Alpes, France — Yesterday and Last 2 Weeks

Now
32 °F

Passing clouds.


Feels Like: 29 °F
Forecast: 17 / 36 °F
Wind: 3 mph from Northeast

Location: Lyon / Bron

Current Time: Jan 19, 2017 at 2:25:23 pm

Latest Report: Jan 19, 2017 at 1:30 pm


Visibility: N/A

Pressure: 30.39 "Hg

Humidity: 60%

Dew Point: 19 °F

Location of LyonLocation

Past Weather in Lyon — Graph

°F

Lyon Temperature Yesterday

Maximum temperature yesterday: 34 °F (at 3:00 pm)
Minimum temperature yesterday: 23 °F (at 4:00 am)
Average temperature yesterday: 28 °F

High & Low Weather Summary for the Past Weeks

 TemperatureHumidityPressure
High50 °F (Jan 12, 8:00 pm)100% (Jan 5, 1:00 am)30.57 "Hg (Jan 5, 1:00 am)
Low18 °F (Jan 19, 4:30 am)51% (Jan 7, 3:00 pm)29.68 "Hg (Jan 12, 10:30 pm)
Average34 °F78%30.22 "Hg
* Reported Jan 4 1:00 pm — Jan 19 1:00 pm, Lyon, Weather by CustomWeather, © 2017

Note: Actual official high and low records may vary slightly from our data, if they occured in-between our weather recording intervals... More about our weather records

Advertising

Lyon Weather History for the Previous 24 Hours

Scroll right to see more
 ConditionsComfort  
Time TempWeatherWind HumidityBarometerVisibility
1:00 pm
Thu, Jan 19
30 °FSunny.1 mph64%30.39 "Hg10 mi
12:30 pm30 °FPassing clouds.3 mph64%30.42 "HgN/A
12:00 pm28 °FSunny.3 mph69%30.42 "Hg10 mi
11:30 am28 °FSunny.2 mph69%30.42 "Hg10 mi
11:00 am27 °FPassing clouds.3 mph74%30.42 "HgN/A
10:30 am25 °FClear.3 mph80%30.42 "Hg5 mi
10:00 am25 °FClear.3 mph80%30.39 "Hg4 mi
9:30 am23 °FClear.No wind93%30.39 "Hg4 mi
9:00 am19 °FIce fog.No wind93%30.39 "Hg3 mi
8:30 am19 °FClear.No wind86%30.39 "Hg4 mi
8:00 am18 °FClear.2 mph93%30.36 "Hg4 mi
7:30 am18 °FClear.No wind93%30.36 "Hg4 mi
7:00 am18 °FClear.No wind93%30.36 "Hg4 mi
6:30 am18 °FCold.No wind93%30.36 "Hg4 mi
6:00 am18 °FClear.No wind86%30.33 "Hg4 mi
5:30 am18 °FClear.No wind93%30.33 "Hg5 mi
5:00 am18 °FClear.No wind93%30.33 "Hg5 mi
4:30 am18 °FCold.No wind93%30.33 "Hg6 mi
4:00 am19 °FClear.No wind86%30.33 "Hg5 mi
3:30 am19 °FClear.No wind86%30.33 "Hg6 mi
3:00 am19 °FClear.No wind86%30.33 "Hg10 mi
2:30 am21 °FClear.No wind80%30.33 "Hg10 mi
2:00 am21 °FClear.No wind80%30.33 "Hg10 mi
1:30 am23 °FClear.1 mph80%30.33 "Hg10 mi
1:00 am23 °FClear.3 mph80%30.33 "Hg10 mi
12:30 am25 °FPassing clouds.3 mph74%30.33 "HgN/A
12:00 am25 °FClear.2 mph74%30.33 "Hg10 mi
11:30 pm
Wed, Jan 18
25 °FClear.3 mph74%30.33 "Hg10 mi
11:00 pm25 °FClear.1 mph74%30.33 "Hg10 mi
10:30 pm27 °FClear.5 mph69%30.33 "Hg10 mi
10:00 pm27 °FClear.6 mph69%30.33 "Hg10 mi
9:30 pm28 °FClear.7 mph64%30.33 "Hg10 mi
9:00 pm28 °FClear.6 mph64%30.33 "Hg10 mi
8:30 pm28 °FClear.6 mph69%30.33 "Hg10 mi
8:00 pm28 °FPassing clouds.8 mph69%30.33 "HgN/A
7:30 pm30 °FPassing clouds.8 mph64%30.33 "HgN/A
7:00 pm30 °FPassing clouds.8 mph64%30.33 "HgN/A
6:30 pm30 °FPassing clouds.6 mph64%30.33 "HgN/A
6:00 pm30 °FPassing clouds.8 mph64%30.33 "HgN/A
5:30 pm32 °FPassing clouds.9 mph55%30.33 "HgN/A
5:00 pm32 °FOvercast.8 mph55%30.33 "HgN/A
4:30 pm32 °FPartly sunny.9 mph55%30.33 "HgN/A
4:00 pm32 °FScattered clouds.9 mph55%30.30 "HgN/A
3:30 pm34 °FPassing clouds.9 mph56%30.30 "HgN/A
3:00 pm34 °FPassing clouds.9 mph51%30.30 "HgN/A
2:30 pm32 °FPartly sunny.9 mph60%30.30 "HgN/A
2:00 pm32 °FScattered clouds.9 mph60%30.30 "HgN/A
Weather by CustomWeather, © 2017

See weather overviewHow to use our weather pages